This demonstration page uses our WeatherBlox Daily Observations layout. Learn more.

Hourly Observations for January 11, 2019

Temp ( °F °C ) Dew Point ( °F °C ) Humidity (%) Winds ( mph kmh ) Pressure ( in mb ) Visibility ( mi km ) Precip ( " mm )
12:15 am 00:15 Clear 28 -2.1 28 -2.4 98 98 Calm 30.15 1021 10 16.0934 0 0
12:35 am 00:35 Clear 28 -2.5 27 -2.9 97 97 Calm 30.15 1021 10 16.0934 0 0
12:55 am 00:55 Clear 27 -2.6 27 -2.8 99 99 Calm 30.15 1021 10 16.0934 0 0
1:15 am 01:15 Clear 28 -2.4 27 -2.6 99 99 Calm 30.12 1020 10 16.0934 0 0
1:35 am 01:35 Clear 28 -2.5 27 -2.6 99 99 Calm 30.12 1020 10 16.0934 0 0
1:55 am 01:55 Clear 28 -2 28 -2.2 99 99 Calm 30.12 1020 10 16.0934 0 0
2:15 am 02:15 Clear 28 -2 28 -2.3 98 98 Calm 30.12 1020 10 16.0934 0 0
2:35 am 02:35 Clear 27 -2.9 27 -3 99 99 Calm 30.12 1020 10 16.0934 0 0
2:55 am 02:55 Clear 27 -2.8 27 -2.8 100 100 Calm 30.12 1020 10 16.0934 0 0
3:15 am 03:15 Clear 27 -3 27 -3 100 100 Calm 30.12 1020 10 16.0934 0 0
3:35 am 03:35 Clear 26 -3.6 26 -3.6 100 100 Calm 30.15 1021 10 16.0934 0 0
3:55 am 03:55 Clear 26 -3.5 26 -3.5 100 100 NE 3 6 30.15 1021 10 16.0934 0 0
4:15 am 04:15 Clear 27 -2.6 27 -2.6 100 100 ENE 5 7 30.12 1020 10 16.0934 0 0
4:35 am 04:35 Clear 28 -2 28 -2 100 100 ENE 5 7 30.12 1020 10 16.0934 0 0
4:55 am 04:55 Clear 29 -1.6 29 -1.6 100 100 ENE 5 7 30.12 1020 10 16.0934 0 0
5:15 am 05:15 Clear 29 -1.5 29 -1.7 99 99 Calm 30.12 1020 10 16.0934 0 0
5:35 am 05:35 Clear 29 -1.5 29 -1.7 99 99 Calm 30.12 1020 10 16.0934 0 0
5:55 am 05:55 Clear 30 -1.2 29 -1.5 98 98 Calm 30.12 1020 10 16.0934 0 0
6:15 am 06:15 Clear 29 -1.7 29 -1.9 99 99 Calm 30.12 1020 10 16.0934 0 0
6:35 am 06:35 Clear 29 -1.7 29 -1.8 99 99 Calm 30.12 1020 10 16.0934 0 0
6:55 am 06:55 Clear 29 -1.7 29 -1.7 100 100 Calm 30.12 1020 10 16.0934 0 0
7:15 am 07:15 Partly Cloudy 29 -1.5 29 -1.5 100 100 NNW 5 7 30.12 1020 10 16.0934 0 0
7:35 am 07:35 Partly Cloudy 29 -1.4 29 -1.5 99 99 Calm 30.12 1020 10 16.0934 0 0
7:55 am 07:55 Partly Cloudy 29 -1.5 29 -1.5 100 100 NNW 6 9 30.12 1020 10 16.0934 0 0
8:15 am 08:15 Mostly Cloudy 30 -1.3 29 -1.5 99 99 N 3 6 30.12 1020 10 16.0934 0 0
8:35 am 08:35 Partly Cloudy 30 -1.3 30 -1.3 100 100 E 5 7 30.12 1020 10 16.0934 0 0
8:55 am 08:55 Mostly Cloudy 30 -1.3 30 -1.3 100 100 ENE 3 6 30.12 1020 10 16.0934 0 0
9:15 am 09:15 Cloudy 30 -1.2 30 -1.2 100 100 ENE 5 7 30.12 1020 10 16.0934 0 0
9:35 am 09:35 Cloudy 30 -1.2 30 -1.2 100 100 NNE 5 7 30.12 1020 10 16.0934 0 0
9:55 am 09:55 Mostly Cloudy 30 -1 30 -1.1 99 99 NNE 6 9 30.15 1021 10 16.0934 0 0
10:15 am 10:15 Mostly Cloudy 30 -1 30 -1.1 99 99 NNE 7 11 30.15 1021 10 16.0934 0 0
10:35 am 10:35 Cloudy 31 -0.7 30 -1 98 98 NNE 5 7 30.15 1021 10 16.0934 0 0
10:55 am 10:55 Cloudy 31 -0.6 30 -1 97 97 NNE 6 9 30.15 1021 10 16.0934 0 0
11:15 am 11:15 Cloudy 31 -0.5 31 -0.7 99 99 NNE 7 11 30.18 1022 10 16.0934 0 0
11:35 am 11:35 Cloudy 31 -0.5 31 -0.8 98 98 N 8 13 30.18 1022 10 16.0934 0 0
11:55 am 11:55 Cloudy 31 -0.5 30 -1 96 96 N 10 17 30.15 1021 10 16.0934 0 0
12:15 pm 12:15 Cloudy 31 -0.5 30 -1 96 96 N 10 17 30.12 1020 10 16.0934 0 0
12:35 pm 12:35 Cloudy 31 -0.4 31 -0.8 97 97 NNE 10 17 30.09 1019 10 16.0934 0 0
12:55 pm 12:55 Cloudy 32 -0.2 31 -0.7 96 96 NNE 10 17 30.09 1019 10 16.0934 0 0
1:15 pm 13:15 Cloudy 32 -0.1 31 -0.6 96 96 NNE 9 15 30.09 1019 10 16.0934 0 0
1:35 pm 13:35 Cloudy 32 0 31 -0.5 96 96 NNE 8 13 30.09 1019 10 16.0934 0 0
1:55 pm 13:55 Cloudy with Light Rain 32 0 31 -0.5 96 96 N 7 11 30.09 1019 10 16.0934 0 0
2:15 pm 14:15 Cloudy with Light Rain 32 0.1 31 -0.5 96 96 N 8 13 30.09 1019 10 16.0934 0 0
2:35 pm 14:35 Cloudy with Light Rain 32 0.2 32 -0.1 98 98 N 9 15 30.09 1019 10 16.0934 0 0
2:55 pm 14:55 Cloudy with Light Rain 32 0.2 32 -0.1 98 98 NNE 9 15 30.09 1019 10 16.0934 0 0
3:15 pm 15:15 Cloudy with Light Rain 32 0.2 32 0 99 99 NNE 8 13 30.12 1020 5 8.0467 0 0
3:35 pm 15:35 Cloudy with Light Snow 32 0.1 32 0 99 99 NNE 9 15 30.12 1020 4 6.43736 0 0
3:55 pm 15:55 Cloudy with Light Snow 32 0.1 32 0 99 99 NNE 9 15 30.12 1020 2 3.21868 0.01 0.254
4:15 pm 16:15 Cloudy with Light Snow 32 0.1 32 0 99 99 NNE 8 13 30.12 1020 3 4.82802 0 0
4:35 pm 16:35 Cloudy with Light Snow 32 0.1 32 0 99 99 NNE 8 13 30.12 1020 2 3.21868 0.01 0.254
4:55 pm 16:55 Cloudy with Light Snow 32 0.1 32 0 99 99 NNE 8 13 30.12 1020 3 4.82802 0.01 0.254
5:15 pm 17:15 Cloudy with Light Snow 32 0.1 32 0 99 99 NNE 9 15 30.12 1020 7 11.26538 0 0
5:35 pm 17:35 Cloudy 32 0.2 32 0 99 99 NNE 7 11 30.12 1020 10 16.0934 0 0
5:55 pm 17:55 Cloudy 32 0.1 32 -0.1 99 99 NNE 12 19 30.12 1020 10 16.0934 0 0
6:15 pm 18:15 Cloudy 32 0.2 32 -0.2 97 97 NNE 10 17 30.12 1020 10 16.0934 0 0
6:35 pm 18:35 Cloudy 32 0.2 32 -0.2 97 97 NNE 12 19 30.12 1020 10 16.0934 0 0
6:55 pm 18:55 Cloudy 32 0.2 32 -0.2 97 97 NNE 12 19 30.12 1020 10 16.0934 0 0
7:15 pm 19:15 Cloudy 32 0.2 32 -0.2 97 97 NNE 13 20 30.12 1020 10 16.0934 0 0
7:35 pm 19:35 Cloudy 32 0.1 32 -0.2 98 98 NNE 10 17 30.12 1020 10 16.0934 0 0
7:55 pm 19:55 Cloudy 32 0.1 31 -0.3 97 97 NNE 10 17 30.12 1020 10 16.0934 0 0
8:15 pm 20:15 Cloudy 32 0.1 31 -0.5 96 96 NE 10 17 30.18 1022 10 16.0934 0 0
8:35 pm 20:35 Cloudy 32 0 31 -0.5 96 96 NE 9 15 30.18 1022 10 16.0934 0 0
8:55 pm 20:55 Cloudy 32 0 31 -0.5 96 96 NNE 12 19 30.18 1022 10 16.0934 0 0
9:15 pm 21:15 Cloudy 32 0 31 -0.5 96 96 NNE 10 17 30.18 1022 10 16.0934 0 0
9:35 pm 21:35 Cloudy 32 0 31 -0.5 96 96 NNE 10 17 30.18 1022 10 16.0934 0 0
9:55 pm 21:55 Cloudy 32 0 31 -0.5 96 96 NNE 9 15 30.21 1023 10 16.0934 0 0
10:15 pm 22:15 Cloudy 32 0 31 -0.5 96 96 NNE 10 17 30.21 1023 10 16.0934 0 0
10:35 pm 22:35 Cloudy 32 0 31 -0.5 96 96 NNE 12 19 30.21 1023 10 16.0934 0 0
10:55 pm 22:55 Cloudy 32 0 31 -0.5 96 96 NNE 10 17 30.21 1023 10 16.0934 0 0
11:15 pm 23:15 Cloudy 32 0 31 -0.5 96 96 NNE 10 17 30.21 1023 10 16.0934 0 0
11:35 pm 23:35 Cloudy 32 -0.1 31 -0.6 96 96 NNE 10 17 30.21 1023 10 16.0934 0 0
11:55 pm 23:55 Cloudy 32 -0.2 31 -0.7 96 96 NNE 12 19 30.21 1023 10 16.0934 0 0

Powered by AerisWeather